Location: Newark
(22.3060°N, 114.2134°E)
Time: 03:58:21
(UTC+00:00)

Vanguard 2 - Pass Details

Date: 03 August 2021
Orbit: 552 x 2937 km, 32.9° (Epoch: 21 September)

Event Time Altitude Azimuth Distance (km) Brightness Sun altitude
Rises 23:10:27 0° 301° (WNW) 2,901 10.1 15.7°
Reaches altitude 10° 23:12:37 10° 311° (NW) 2,135 9.5 16.2°
Maximum altitude 23:17:06 35° 18° (NNE) 1,380 9.4 17.2°
Drops below altitude 10° 23:23:42 10° 82° (E) 3,184 13.2 18.7°
Sets 23:27:41 0° 90° (E) 4,580 13.0 19.6°
